Погода в Баргузине

Погода в Баргузине : погода сейчас, прогноз погоды и архив. Всё, что Вы хотите узнать о погоде в Баргузине!

Поиск расширенной информации на нашем сайте:

Другие новости

Новости СМИ2

Главная страница сайта

Новости сайта

03.07.2017

Напоминаем, что на нашем специализированном сайте Метеоцентр.Азия вы можете получить высокодетализированные автоматические прогнозы погоды по пунктам России, СНГ и мира в авиационном формате (включающие направление и скорость ветра, видимость, явления погоды, количество и форму облачности, нижнюю и верхнюю границу облачности).

Рекомендуем: Продам сайт smssend.

Погода в Баргузине - сегодня

Время (UTC), дата Ветер
(°,м/с) 
Видим.   Явления Облачность Т
(°С)
Тd
(°С)
f(%) Тe
(°С)
Pmin
(гПа)
dP
(гПа)
Po
(мм)
O2
(г/м3)
Тmin Tmax R s Состояние
почвы
09 17.02.18 110 (В) 10 км  слаб. снег  10/0 средняя, верхняя 
[Ac trans|Cs]
-21.9 -26 69 -22  1034.3  0.3  726  320           
12 17.02.18 тихо ()   н/о  слаб. снег  10/0 средняя, верхняя 
[Ac As|Cs]
-25.1 -27.6 80 -25  1036.2  1.1  727  324    -21.7  0.0     
15 17.02.18 тихо ()   н/о  {снег}  ясно 
-28.7 -31.2 79 -29  1037.9  0.7  727  329           
18 17.02.18 тихо ()   н/о  {снег}  ясно 
-31.2 -34.3 74 -31  1039  0.3  728  333           
21 17.02.18 тихо ()   н/о    ясно 
-31.7 -34.8 74 -32  1039.4  0.3  728  334           
00 18.02.18 тихо ()   н/о    4/0 верхняя 
[Sc|Ci fib]
-33.2 -36.3 74 -33  1040  0.1  728  336  -33.2    0.0  41  равномерный
сухой снег
100% 
03 18.02.18 тихо ()   20000 м    10/3 1000 м верхняя 
[Sc|Cs]
-26.8 -29.3 79 -27  1037.4  -0.7  727  327           
06 18.02.18 300 (СЗ) 20000 м    10/4 600 м кучево-дожд., средняя, верхняя 
[Cb cap|Ac trans|Ci fib]
-12 -18.2 60 -15  1031.9  -1.5  726  307           
09 18.02.18 210 (ЮЗ) 20000 м    10/6 600 м кучево-дожд., средняя 
[Cb cap|Ac trans]
-13.1 -19.2 60 -13  1031.5  -0.6  726  309           
15 18.02.18 170 (Ю) н/о    10/0 средняя, верхняя 
[Ac trans|Ci fib]
-15 -19.2 70 -15  1032  -0.3  726  311           
18 18.02.18 220 (ЮЗ) н/о    4/0 верхняя 
[Ci fib]
-15 -21 60 -15  1030.9  -1.1  725  311           
21 18.02.18 240 (ЮЗ) н/о    ясно 
-16.9 -20.3 75 -19  1032.7  1.2  726  313           
00 19.02.18 190 (Ю) н/о    10/0 средняя, верхняя 
[Ac trans|Ci fib]
-20 -22.6 80 -20  1033.6  0.2  726  317  -20.2      41  равномерный
сухой снег
100% 
03 19.02.18 300 (СЗ) 20000 м    10/3 600 м кучево-дожд., средняя, верхняя 
[Cb cap|Ac trans|Ci fib]
-14.4 -19.5 65 -17  1032.5  0.3  726  310           
06 19.02.18 230 (ЮЗ) 20000 м    10/3 600 м кучево-дожд., средняя, верхняя 
[Cb cap|Ac trans|Ci fib]
-11.8 -19 55 -12  1030.2  -1.5  725  307           
09 19.02.18 210 (ЮЗ) 20000 м    10/3 600 м кучево-дожд., средняя, верхняя 
[Cb cap|Ac trans|Ci fib]
-12.4 -19.6 55 -12  1030.2  -0.2  725  307           
15 19.02.18 200 (Ю) н/о    8/4 600 м кучево-дожд., средняя, верхняя 
[Cb cap|Ac trans|Ci fib]
-12.7 -18.9 60 -15  1028.2  -1.7  724  307           
18 19.02.18 120 (ЮВ) н/о    6/0 верхняя 
[Ci fib]
-14.1 -18.4 70 -14  1029.2  0.6             
21 19.02.18 060 (СВ) н/о    6/0 верхняя 
[Ci fib]
-16.3 -18.9 80 -16  1029.3  -0.4  724  312           
00 20.02.18 тихо ()   н/о    10/0 средняя, верхняя 
[Ac trans|Cs]
-23.6 -25.5 84 -24  1031.7  0.4  724  321  -23.7      41  равномерный
сухой снег
100% 
03 20.02.18 300 (СЗ) 20000 м    10/3 600 м кучево-дожд., средняя, верхняя 
[Cb cap|Ac trans|Cs]
-11.8 -16.2 70 -12  1028.1  -0.5  724  306           
06 20.02.18 260 (З) 20000 м    10/6 600 м кучево-дожд., верхняя 
[Cb cap|Cs]
-9.5 -16.5 57 -11  1025.1  -2.3  722  303           
09 20.02.18 300 (СЗ) 10 км  слаб. ливневой снег  10/10 600 м кучево-дожд. 
[Cb cap]
-10 -12.7 81 -12  1023.4  -1.7  721  302           
12 20.02.18 240 (ЮЗ) н/о  слаб. ливневой снег  10/10 600 м кучево-дожд. 
[Cb cap]
-9.8 -12.9 78 -12  1022.1  -1.1  720  302    -8.6     
15 20.02.18 210 (ЮЗ) н/о  слаб. ливневой снег  10/10 600 м кучево-дожд. 
[Cb cap]
-10.3 -12.3 85 -10  1021.4  -0.8  719  302           
Время (UTC), дата Ветер
(°,м/с) 
Видим.   Явления Облачность Т
(°С)
Тd
(°С)
f(%) Тe
(°С)
Pmin
(гПа)
dP
(гПа)
Po
(мм)
O2
(г/м3)
Тmin Tmax R s Состояние
почвы

Для получения пояснительной информации подведите курсор к названию столбца.

ПОГОДА в Баргузине - архив

Всё, что Вы хотите узнать о погоде в Баргузине - удобно и подробно!

Выберите нужную дату (начиная с 1 января 2015* года) и нажмите кнопку "Найти".
Будут отображены архивные сводки погоды по пункту Баргузин, начиная с указанной даты.


Отображать данные в формате CSV (для использования в таблицах Excel)


Внимание! Наш архив погоды предназначен исключительно для личного некоммерческого использования в познавательных целях. Если Вам необходимы официальные справки о состоянии погоды (для производственных, юридических, коммерческих и т.п. целей), обращайтесь в органы Росгидромета.

*Примечание: данная дата относится к архиву по метеостанциям СССР (Россия, СНГ, Балтия).
Архив по метеостанциям Зарубежной Европы и Азии (кроме Китая) хранится 10 дней, по другим регионам земного шара (Китай, Африка, Америка, Австралия, Океания) - 1 день.

Баргузин - район местоположения метеостанции


Название, широта, долгота, высота метеостанции:
Баргузин 53.6°ш. 109.6°д. 489 м над ур. моря [Российская Федерация]

Дополнительная информация

В oтличие oт бoльшинства пoгoдных сайтoв мы публикуем пoдрoбную метеoинфoрмацию в детальнoм прoфессиoнальнoм фoрмате.

Характеристики температуры и влажнoсти вoздуха измеряются на высoте 2 м в тени вдали oт зданий и деревьев.
Скoрoсть ветра измеряется на высoте 10 м (на урoвне рoста челoвека скoрoсть ветра ниже в 1.5-2 раза). Если метеoстанция нахoдится в гoрoде или в лесу, тo скoрoсть ветра занижена на 2-4 м/с пo сравнению с oткрытым местoм. Скoрoсть ветра над акватoриями крупных рек и oзёр, а также на вершинах хoлмoв на 2-5 м/с выше, чем в oбычных услoвиях.
Атмoсфернoе давление в разных тoчках местнoсти мoжет значительнo oтличаться oт давления на метеoстанции, в зависимoсти oт услoвий рельефа (при пoдъёме на 10 м давление пoнижается примернo на 1 мм рт.ст.).